Mecheria, Algeria

8:25 PM CET on December 05, 2019 (GMT +0100)
Mecheria

Weather History for DAAY - May, 2019

Change the Weather History Date:

Wednesday, May 22, 2019

  Actual Average Record
Temperature  
Mean Temperature 70 °F -  
Max Temperature 82 °F - - ()
Min Temperature 58 °F - - ()
Cooling Degree Days 5    
Growing Degree Days 20 (Base 50)    
Moisture  
Dew Point 53 °F    
Average Humidity 54    
Maximum Humidity 77    
Minimum Humidity 30    
Precipitation  
Precipitation 0.00 in - - ()
Sea Level Pressure  
Sea Level Pressure 30.15 in    
Wind  
Wind Speed 11 mph ()    
Max Wind Speed 21 mph    
Max Gust Speed -    
Visibility 6.1 miles    
Events      
T = Trace of Precipitation, MM = Missing Value Source: Averaged Metar Reports

Daily Weather History Graph

Daily Weather History Graph

Search for Another Location

Airport or City:

Astronomy

May. 22, 2019 Rise Set
Actual Time 5:56 AM CET 7:59 PM CET
Civil Twilight 5:28 AM CET 8:27 PM CET
Nautical Twilight 4:54 AM CET 9:01 PM CET
Astronomical Twilight 4:18 AM CET 9:37 PM CET
Moon 11:30 PM CET (5/22) 8:53 AM CET (5/22)
Length of Visible Light 14h 58m
Length of Day
14h 02m
Waning Gibbous, 86% of the Moon is Illuminated
May 22
Waning Gibbous
May 26
Last Quarter
Jun 3
New
Jun 10
First Quarter
Jun 17
Full

Hourly Weather History & Observations

Time (CET) Temp. Heat Index Dew Point Humidity Pressure Visibility Wind Dir Wind Speed Gust Speed Precip Events Conditions
12:00 AM 62.6 °F - 51.8 °F 68% 30.15 in 5.0 mi North 20.7 mph - N/A   Partly Cloudy
1:00 AM 62.6 °F - 51.8 °F 68% 30.15 in 6.2 mi North 11.5 mph - N/A   Partly Cloudy
2:00 AM 60.8 °F - 50.0 °F 68% 30.15 in 6.2 mi North 9.2 mph - N/A   Partly Cloudy
3:00 AM 60.8 °F - 51.8 °F 72% 30.15 in 6.2 mi North 11.5 mph - N/A   Partly Cloudy
4:00 AM 59.0 °F - 50.0 °F 72% 30.15 in 6.2 mi North 11.5 mph - N/A   Partly Cloudy
5:00 AM 57.2 °F - 50.0 °F 77% 30.15 in 6.2 mi North 11.5 mph - N/A   Partly Cloudy
6:00 AM 59.0 °F - 48.2 °F 67% 30.15 in 6.2 mi North 9.2 mph - N/A   Scattered Clouds
7:00 AM 60 °F - 49 °F 59%  in 6 mi North 9.2 mph - -   Partly Cloudy
7:00 AM 59.0 °F - 50.0 °F 72% 30.15 in 6.2 mi North 9.2 mph - N/A   Scattered Clouds
8:00 AM 62.6 °F - 51.8 °F 68% 30.15 in 6.2 mi North 11.5 mph - N/A   Scattered Clouds
9:00 AM 64.4 °F - 53.6 °F 68% 30.18 in 6.2 mi North 9.2 mph - N/A   Scattered Clouds
10:00 AM 68 °F - 53 °F 49%  in 6 mi NNE 11.5 mph - -   Partly Cloudy
10:00 AM 68.0 °F - 53.6 °F 60% 30.18 in 6.2 mi NNE 11.5 mph - N/A   Scattered Clouds
11:00 AM 71.6 °F - 55.4 °F 57% 30.18 in 6.2 mi North 11.5 mph - N/A   Scattered Clouds
12:00 PM 73.4 °F - 53.6 °F 50% 30.15 in 6.2 mi North 9.2 mph - N/A   Scattered Clouds
1:00 PM 76 °F - 53 °F 33%  in 6 mi North 9.2 mph - -   Partly Cloudy
1:00 PM 77.0 °F - 53.6 °F 44% 30.15 in 6.2 mi North 9.2 mph - N/A   Scattered Clouds
2:00 PM 78.8 °F - 55.4 °F 44% 30.15 in 6.2 mi North 9.2 mph - N/A   Scattered Clouds
3:00 PM 82.4 °F 82.0 °F 57.2 °F 42% 30.15 in 6.2 mi North 9.2 mph - N/A   Scattered Clouds
4:00 PM 81 °F - 56 °F 32%  in 6 mi North 13.8 mph - -   Partly Cloudy
4:00 PM 80.6 °F 80.5 °F 55.4 °F 42% 30.12 in 6.2 mi North 13.8 mph - N/A   Scattered Clouds
5:00 PM 82.4 °F 81.7 °F 55.4 °F 39% 30.12 in 6.2 mi North 16.1 mph - N/A   Scattered Clouds
6:00 PM 80.6 °F 80.5 °F 55.4 °F 42% 30.09 in 6.2 mi North 16.1 mph - N/A   Scattered Clouds
7:00 PM 80 °F - 54 °F 30%  in 6 mi North 16.1 mph - -   Partly Cloudy
7:00 PM 78.8 °F - 53.6 °F 42% 30.09 in 6.2 mi North 16.1 mph - N/A   Scattered Clouds
9:00 PM 75.2 °F - 51.8 °F 44% 30.15 in 6.2 mi NNE 9.2 mph - N/A   Scattered Clouds
11:00 PM 69.8 °F - 50.0 °F 49% 30.21 in 6.2 mi ENE 16.1 mph - N/A   Scattered Clouds